Weather History for KWJF - September, 2014

Change the Weather History Date:

Tuesday, September 16, 2014

  Actual Average Record
Temperature  
Mean Temperature 85 °F 74 °F  
Max Temperature 101 °F 91 °F 104 °F (1951)
Min Temperature 68 °F 57 °F 43 °F (1970)
Degree Days  
Heating Degree Days 0    
Month to date heating degree days 0  
Since 1 July heating degree days 0  
Cooling Degree Days 20    
Month to date cooling degree days 231  
Year to date cooling degree days 1882  
Growing Degree Days 34 (Base 50)    
Moisture  
Dew Point 46 °F    
Average Humidity 31    
Maximum Humidity 44    
Minimum Humidity 17    
Precipitation  
Precipitation 0.00 in 0.00 in 0.17 in (1975)
Month to date precipitation T 0.06  
Year to date precipitation 2.35 5.16  
Since 1 July precipitation 0.03 0.25  
Snow  
Snow 0.00 in - 0.00 in ()
Month to date snowfall 0.0  
Since 1 July snowfall 0.0  
Since 1 September snowfall 0.0  
Snow Depth 0.00 in    
Sea Level Pressure  
Sea Level Pressure 29.82 in    
Wind  
Wind Speed 8 mph (WSW)    
Max Wind Speed 26 mph    
Max Gust Speed 32 mph    
Visibility 10 miles    
Events      
T = Trace of Precipitation, MM = Missing Value Source: NWS Daily Summary

Daily Weather History Graph

Daily Weather History Graph

Search for Another Location

Airport or City:

Trip Planner

Search our weather history database for the weather conditions in past years. The results will help you decide how hot, cold, wet, or windy it might be!

Date:

Astronomy

Sep. 16, 2014 Rise Set
Actual Time 6:36 AM PDT 6:58 PM PDT
Civil Twilight 6:11 AM PDT 7:23 PM PDT
Nautical Twilight 5:41 AM PDT 7:52 PM PDT
Astronomical Twilight 5:11 AM PDT 8:22 PM PDT
Moon 12:00 AM PDT (9/16) 2:15 PM PDT (9/16)
Length of Visible Light 13h 11m
Length of Day
12h 21m
Last Quarter, 43% of the Moon is Illuminated
Sep 16
Last Quarter
Sep 23
New
Oct 1
First Quarter
Oct 8
Full
Oct 15
Last Quarter

Hourly Weather History & Observations

Time (PDT) Temp. Dew Point Humidity Pressure Visibility Wind Dir Wind Speed Gust Speed Precip Events Conditions
12:56 AM 82.0 °F 48.9 °F 31% 29.86 in 10.0 mi West 12.7 mph - N/A   Scattered Clouds
1:56 AM 79.0 °F 48.0 °F 34% 29.86 in 10.0 mi West 10.4 mph - N/A   Clear
2:56 AM 78.1 °F 46.9 °F 33% 29.85 in 10.0 mi WNW 9.2 mph - N/A   Clear
3:56 AM 75.9 °F 46.9 °F 36% 29.84 in 10.0 mi West 3.5 mph - N/A   Clear
4:56 AM 72.0 °F 46.0 °F 40% 29.85 in 10.0 mi Calm Calm - N/A   Clear
5:56 AM 69.1 °F 46.0 °F 44% 29.86 in 10.0 mi Calm Calm - N/A   Clear
6:56 AM 69.1 °F 46.0 °F 44% 29.88 in 10.0 mi ENE 4.6 mph - N/A   Clear
7:56 AM 73.9 °F 46.0 °F 37% 29.88 in 10.0 mi West 3.5 mph - N/A   Clear
8:56 AM 81.0 °F 48.0 °F 31% 29.88 in 10.0 mi SW 3.5 mph - N/A   Clear
9:56 AM 87.1 °F 48.0 °F 26% 29.88 in 10.0 mi South 4.6 mph - N/A   Clear
10:56 AM 90.0 °F 48.0 °F 24% 29.86 in 10.0 mi SE 4.6 mph - N/A   Clear
11:56 AM 93.9 °F 46.9 °F 20% 29.84 in 10.0 mi Variable 4.6 mph - N/A   Clear
12:56 PM 97.0 °F 48.0 °F 19% 29.81 in 10.0 mi ESE 4.6 mph - N/A   Clear
1:56 PM 99.0 °F 48.0 °F 18% 29.78 in 10.0 mi SSE 8.1 mph - N/A   Clear
2:56 PM 100.0 °F 48.0 °F 17% 29.75 in 10.0 mi Calm Calm - N/A   Clear
3:56 PM 99.0 °F 46.9 °F 17% 29.73 in 10.0 mi SW 8.1 mph - N/A   Clear
4:56 PM 97.0 °F 46.9 °F 18% 29.74 in 10.0 mi West 25.3 mph - N/A   Partly Cloudy
5:56 PM 93.9 °F 46.9 °F 20% 29.75 in 10.0 mi West 20.7 mph - N/A   Partly Cloudy
6:56 PM 89.1 °F 46.9 °F 23% 29.78 in 10.0 mi West 18.4 mph - N/A   Clear
7:56 PM 87.1 °F 46.9 °F 25% 29.81 in 10.0 mi WSW 8.1 mph - N/A   Mostly Cloudy
8:56 PM 86.0 °F 46.0 °F 25% 29.79 in 10.0 mi West 18.4 mph - N/A   Partly Cloudy
9:56 PM 84.0 °F 43.0 °F 24% 29.80 in 10.0 mi West 12.7 mph - N/A   Partly Cloudy
10:56 PM 82.0 °F 37.0 °F 20% 29.80 in 10.0 mi West 12.7 mph - N/A   Clear
11:56 PM 82.0 °F 35.1 °F 18% 29.80 in 10.0 mi SW 8.1 mph - N/A   Clear